Location: ???? ???? ?????
(31.2680°N, 31.7283°E)
Time: 19:34:13
(UTC+00:00)

Cosmos 1892 - Pass Details

Date: 13 July 2020
Orbit: 505 x 523 km, 82.5° (Epoch: 05 August)

Event Time Altitude Azimuth Distance (km) Brightness Sun altitude
Exits shadow 19:01:51 47° 44° (NE) 679 3.2 -22.1°
Drops below altitude 10° 19:04:49 10° 14° (NNE) 1,735 5.7 -22.6°
Sets 19:06:58 0° 11° (N) 2,629 6.8 -22.9°
